TimePST,TemperatureF,Dew PointF,Humidity,Sea Level PressureIn,VisibilityMPH,Wind Direction,Wind SpeedMPH,Gust SpeedMPH,PrecipitationIn,Events,Conditions,WindDirDegrees,DateUTC
12:53 AM,50.0,28.0,43,30.08,10.0,NW,4.6,-,N/A,,Clear,320,2014-01-05 08:53:00
1:53 AM,48.9,27.0,43,30.11,10.0,NW,5.8,-,N/A,,Clear,320,2014-01-05 09:53:00
2:53 AM,53.1,25.0,34,30.12,10.0,NW,4.6,-,N/A,,Clear,310,2014-01-05 10:53:00
3:53 AM,57.9,21.0,24,30.13,10.0,West,6.9,-,N/A,,Clear,270,2014-01-05 11:53:00
4:53 AM,55.0,19.9,25,30.14,10.0,West,4.6,-,N/A,,Clear,280,2014-01-05 12:53:00
5:53 AM,55.9,21.0,26,30.16,10.0,West,4.6,-,N/A,,Clear,280,2014-01-05 13:53:00
6:53 AM,50.0,21.9,33,30.19,10.0,WSW,3.5,-,N/A,,Clear,240,2014-01-05 14:53:00
7:53 AM,55.0,19.9,25,30.22,10.0,Calm,Calm,-,N/A,,Clear,0,2014-01-05 15:53:00
8:53 AM,61.0,21.9,22,30.24,10.0,Calm,Calm,-,N/A,,Clear,0,2014-01-05 16:53:00
9:53 AM,64.0,21.0,19,30.25,10.0,ESE,3.5,-,N/A,,Clear,120,2014-01-05 17:53:00
10:53 AM,68.0,12.9,12,30.23,10.0,Calm,Calm,-,N/A,,Clear,0,2014-01-05 18:53:00
11:53 AM,71.1,5.0,8,30.20,10.0,Calm,Calm,-,N/A,,Clear,0,2014-01-05 19:53:00
12:53 PM,72.0,-0.0,6,30.16,10.0,Calm,Calm,-,N/A,,Clear,0,2014-01-05 20:53:00
1:53 PM,73.0,-0.9,5,30.14,10.0,SSE,3.5,-,N/A,,Clear,160,2014-01-05 21:53:00
2:53 PM,75.0,3.0,6,30.15,10.0,Variable,3.5,-,N/A,,Clear,0,2014-01-05 22:53:00
3:53 PM,73.0,6.1,7,30.15,10.0,Calm,Calm,-,N/A,,Clear,0,2014-01-05 23:53:00
4:53 PM,68.0,12.9,12,30.16,10.0,Calm,Calm,-,N/A,,Clear,0,2014-01-06 00:53:00
5:53 PM,66.0,-0.9,7,30.19,10.0,NW,9.2,-,N/A,,Clear,320,2014-01-06 01:53:00
6:53 PM,64.0,-2.0,7,30.20,10.0,WNW,4.6,-,N/A,,Clear,290,2014-01-06 02:53:00
7:53 PM,62.1,1.9,9,30.22,10.0,West,5.8,-,N/A,,Clear,280,2014-01-06 03:53:00
8:53 PM,60.1,3.9,11,30.24,10.0,West,4.6,-,N/A,,Clear,270,2014-01-06 04:53:00
9:53 PM,57.9,3.9,11,30.25,10.0,West,5.8,-,N/A,,Clear,270,2014-01-06 05:53:00
10:53 PM,54.0,1.0,12,30.25,10.0,NNW,6.9,-,N/A,,Clear,340,2014-01-06 06:53:00
11:53 PM,55.0,-0.0,11,30.24,10.0,NW,5.8,-,N/A,,Clear,310,2014-01-06 07:53:00